Weather reports worldwide

Advertisment
Palermo/Punta Raisi, Italy (16405): temperature & dewpoint: 12.10.2018 03:00:00 - 18.10.2018 03:00:00 (CEST)Palermo/Punta Raisi, Italy (16405): wind speed: 12.10.2018 03:00:00 - 18.10.2018 03:00:00 (CEST)Palermo/Punta Raisi, Italy (16405): wind direction: 12.10.2018 03:00:00 - 18.10.2018 03:00:00 (CEST)Palermo/Punta Raisi, Italy (16405): reduced air pressure: 12.10.2018 03:00:00 - 18.10.2018 03:00:00 (CEST)Palermo/Punta Raisi, Italy (16405): visibility: 12.10.2018 03:00:00 - 18.10.2018 03:00:00 (CEST)Palermo/Punta Raisi, Italy (16405): precipitation: 12.10.2018 03:00:00 - 18.10.2018 03:00:00 (CEST)
Date & Time tt [°C] td [°C] ff [km/h] ff [kn] dd ppp [hPa] vv [km] rr [mm]
18.10.2018 03:00:00 21,0 15,0 8 4 NE - 10 -
18.10.2018 02:00:00 21,9 14,4 13 7 ENE 1010,1 10 -
18.10.2018 01:00:00 22,0 17,0 9 5 N - 10 -
18.10.2018 00:00:00 21,0 17,0 4 2 - - 10 -
17.10.2018 23:00:00 22,3 16,2 4 2 - 1011,8 10 0,0
17.10.2018 22:00:00 21,0 18,0 9 5 ESE - 10 -
17.10.2018 21:00:00 22,0 17,0 18 10 ENE - 10 -
17.10.2018 20:00:00 22,1 19,0 4 2 - 1011,8 10 -
17.10.2018 19:00:00 23,0 17,0 5 3 - - 10 -
17.10.2018 18:00:00 24,0 18,0 8 4 - - 10 -
17.10.2018 17:00:00 24,5 17,8 15 8 ENE 1011,6 10 0,0
17.10.2018 16:00:00 25,0 18,0 16 9 ENE - 10 -
17.10.2018 15:00:00 25,0 18,0 15 8 NE - 10 -
17.10.2018 14:00:00 24,0 17,6 15 8 NE 1012,8 10 -
17.10.2018 13:00:00 23,0 20,0 8 4 N - 10 -
17.10.2018 12:00:00 23,0 19,0 9 5 WSW - 10 -
17.10.2018 11:00:00 22,6 18,2 9 5 WSW 1014,7 10 0,0
17.10.2018 10:00:00 22,0 18,0 8 4 SSW - 10 -
17.10.2018 09:00:00 20,0 18,0 11 6 S - 10 -
17.10.2018 08:00:00 19,7 17,1 5 3 ESE 1014,4 10 -
17.10.2018 07:00:00 20,0 17,0 4 2 - - 10 -
17.10.2018 06:00:00 20,0 17,0 2 1 - - 10 -
17.10.2018 05:00:00 20,3 16,4 5 3 S 1014,6 10 0,0
17.10.2018 04:00:00 20,0 17,0 5 3 S - 10 -
17.10.2018 03:00:00 21,0 17,0 21 11 SW - 10 -
17.10.2018 02:00:00 20,3 17,8 8 4 SW 1015,9 10 -
17.10.2018 01:00:00 20,0 18,0 9 5 SSE - 10 -
17.10.2018 00:00:00 20,0 18,0 9 5 SSE - 10 -
16.10.2018 23:00:00 20,4 18,2 8 4 S 1016,7 10 0,0
16.10.2018 22:00:00 21,0 20,0 2 1 - - 10 -
16.10.2018 21:00:00 22,0 19,0 2 1 - - 10 -
16.10.2018 20:00:00 21,9 18,6 4 2 - 1016,4 10 -
16.10.2018 19:00:00 22,0 19,0 5 3 SE - 10 -
16.10.2018 18:00:00 22,0 20,0 15 8 ENE - 10 -
16.10.2018 17:00:00 22,7 20,1 11 6 E 1015,7 10 0,0
16.10.2018 16:00:00 24,0 19,0 13 7 ENE - 10 -
16.10.2018 15:00:00 24,0 19,0 13 7 ENE - 10 -
16.10.2018 14:00:00 23,4 18,8 15 8 NE 1015,3 10 -
16.10.2018 13:00:00 24,0 16,0 13 7 NE - 10 -
16.10.2018 12:00:00 23,0 18,0 9 5 NNE - 10 -
16.10.2018 11:00:00 22,7 17,5 4 2 - 1016,1 10 0,0
16.10.2018 10:00:00 21,0 18,0 11 6 SW - 10 -
16.10.2018 09:00:00 21,0 18,0 8 4 E - 10 -
16.10.2018 08:00:00 20,3 16,9 13 7 ENE 1015,2 10 -
16.10.2018 07:00:00 20,0 17,0 4 2 - - 10 -
16.10.2018 06:00:00 20,0 17,0 4 2 - - 10 -
16.10.2018 05:00:00 20,9 14,7 8 4 S 1014,7 10 0,0
16.10.2018 04:00:00 20,0 17,0 8 4 SSW - 10 -
16.10.2018 03:00:00 19,0 17,0 9 5 S - 10 -
16.10.2018 02:00:00 20,0 17,0 4 2 - 1015,4 10 -
16.10.2018 01:00:00 21,0 17,0 2 1 - - 10 -
16.10.2018 00:00:00 21,0 17,0 8 4 S - 10 -
15.10.2018 23:00:00 20,3 17,1 11 6 SSW 1015,5 10 0,0
15.10.2018 22:00:00 - - - - - - - -
15.10.2018 21:00:00 21,0 18,0 8 4 SW - 10 -
15.10.2018 20:00:00 21,8 18,1 2 1 N 1014,4 20 -
15.10.2018 19:00:00 22,0 18,0 9 5 E - 10 -
15.10.2018 18:00:00 22,0 18,0 16 9 NE - 10 -
15.10.2018 17:00:00 22,4 18,6 15 8 NNE 1012,9 10 0,0
15.10.2018 16:00:00 22,0 18,0 13 7 NNE - 10 -
15.10.2018 15:00:00 23,0 18,0 11 6 N - 10 -
15.10.2018 14:00:00 22,5 18,2 9 5 NW 1012,9 10 -
15.10.2018 13:00:00 22,0 18,0 8 4 W - 10 -
15.10.2018 12:00:00 22,0 18,0 9 5 W - 10 -
15.10.2018 11:00:00 21,4 17,3 8 4 W 1013,3 10 0,0
15.10.2018 10:00:00 21,0 17,0 4 2 - - 10 -
15.10.2018 09:00:00 20,0 17,0 8 4 S - 10 -
15.10.2018 08:00:00 18,3 16,3 9 5 ENE 1011,8 10 -
15.10.2018 07:00:00 19,0 17,0 11 6 E - 10 -
15.10.2018 06:00:00 19,0 16,0 5 3 SE - 10 -
15.10.2018 05:00:00 18,7 16,8 9 5 SSE 1011,5 10 0,0
15.10.2018 04:00:00 19,0 17,0 11 6 ENE - 10 -
15.10.2018 03:00:00 19,0 17,0 4 2 - - 10 -
15.10.2018 02:00:00 19,1 17,3 9 5 ENE 1011,9 7 -
15.10.2018 01:00:00 19,0 17,0 11 6 NNE - 6 -
15.10.2018 00:00:00 19,0 17,0 8 4 NE - 8 -
14.10.2018 23:00:00 18,9 16,6 13 7 ENE 1013,2 8 0,0
14.10.2018 22:00:00 19,0 17,0 16 9 E - 9 -
14.10.2018 21:00:00 19,0 16,0 29 16 ENE - 9 -
14.10.2018 20:00:00 19,3 16,7 22 12 E 1013,1 15 -
14.10.2018 19:00:00 20,0 15,0 15 8 ENE - 8 -
14.10.2018 18:00:00 21,0 14,0 24 13 E - 10 -
14.10.2018 17:00:00 21,3 14,1 24 13 E 1013,0 10 0,0
14.10.2018 16:00:00 22,0 15,0 21 11 ENE - 10 -
14.10.2018 15:00:00 23,0 15,0 21 11 ENE - 10 -
14.10.2018 14:00:00 22,3 15,6 18 10 NE 1014,1 10 -
14.10.2018 13:00:00 23,0 15,0 24 13 ENE - 10 -
14.10.2018 12:00:00 23,0 15,0 13 7 ENE - 10 -
14.10.2018 11:00:00 21,6 16,6 5 3 WSW 1016,1 10 0,0
14.10.2018 10:00:00 21,0 17,0 5 3 WSW - 10 -
14.10.2018 09:00:00 20,0 16,0 8 4 S - 10 -
14.10.2018 08:00:00 20,1 16,2 8 4 SSW 1016,0 10 -
14.10.2018 07:00:00 21,0 15,0 8 4 NE - 10 -
14.10.2018 06:00:00 19,0 15,0 11 6 ENE - 10 -
14.10.2018 05:00:00 19,7 15,4 4 2 W 1016,6 10 0,0
14.10.2018 04:00:00 19,0 16,0 2 1 - - 10 -
14.10.2018 03:00:00 - - - - - - - -
14.10.2018 02:00:00 20,7 15,5 4 2 - 1018,1 10 -
14.10.2018 01:00:00 20,0 16,0 5 3 SSW - 10 -
14.10.2018 00:00:00 20,0 15,0 4 2 - - 10 -
13.10.2018 23:00:00 19,4 14,6 13 7 ENE 1019,0 10 0,0
13.10.2018 22:00:00 20,0 16,0 8 4 ESE - 10 -
13.10.2018 21:00:00 19,0 16,0 5 3 SE - 10 -
13.10.2018 20:00:00 21,3 16,2 4 2 - 1019,1 10 -
13.10.2018 19:00:00 - - - - - - - -
13.10.2018 18:00:00 22,0 17,0 9 5 SSW - 10 -
13.10.2018 17:00:00 23,2 15,5 11 6 ENE 1018,5 10 0,0
13.10.2018 16:00:00 23,0 16,0 15 8 ENE - 10 -
13.10.2018 15:00:00 23,0 16,0 21 11 ENE - 10 -
13.10.2018 14:00:00 22,9 16,3 18 10 NE 1019,1 - -
13.10.2018 13:00:00 23,0 15,0 16 9 ENE - 10 -
13.10.2018 12:00:00 23,0 16,0 16 9 ENE - 10 -
13.10.2018 11:00:00 21,8 18,3 2 1 - 1020,3 10 0,0
13.10.2018 10:00:00 22,0 18,0 2 1 - - 10 -
13.10.2018 09:00:00 20,0 19,0 5 3 SSE - 10 -
13.10.2018 08:00:00 20,0 18,5 5 3 SSW 1019,3 10 -
13.10.2018 07:00:00 20,0 19,0 8 4 S - 10 -
13.10.2018 06:00:00 21,0 19,0 9 5 ENE - 10 -
13.10.2018 05:00:00 19,8 18,4 2 1 - 1019,3 10 0,0
13.10.2018 04:00:00 20,0 19,0 5 3 S - 10 -
13.10.2018 03:00:00 20,0 19,0 2 1 - - 10 -
13.10.2018 02:00:00 21,2 19,4 8 4 ENE 1020,0 10 -
13.10.2018 01:00:00 21,0 19,0 2 1 - - 10 -
13.10.2018 00:00:00 21,0 19,0 4 2 SE - 10 -
12.10.2018 23:00:00 20,6 19,1 5 3 S 1020,5 10 0,0
12.10.2018 22:00:00 21,0 19,0 13 7 SW - 10 -
12.10.2018 21:00:00 21,0 18,0 21 11 SSW - 10 -
12.10.2018 20:00:00 22,4 18,5 9 5 SE 1020,1 9 -
12.10.2018 19:00:00 22,0 18,0 9 5 E - 9 -
12.10.2018 18:00:00 23,0 19,0 8 4 NE - 10 -
12.10.2018 17:00:00 23,4 18,9 8 4 N 1019,4 10 0,0
12.10.2018 16:00:00 24,0 18,0 8 4 - - 10 -
12.10.2018 15:00:00 25,0 18,0 18 10 SSW - 10 -
12.10.2018 14:00:00 24,1 16,9 18 10 S 1019,7 10 -
12.10.2018 13:00:00 23,0 18,0 21 11 SSW - 10 -
12.10.2018 12:00:00 23,0 17,0 11 6 SE - 10 -
12.10.2018 11:00:00 21,0 18,3 4 2 - 1020,1 10 0,0
12.10.2018 10:00:00 20,0 18,0 13 7 ENE - 7 -
12.10.2018 09:00:00 20,0 18,0 9 5 E - 7 -
12.10.2018 08:00:00 20,2 18,1 28 15 ENE 1020,0 10 -
12.10.2018 07:00:00 21,0 18,0 28 15 E - 10 -
12.10.2018 06:00:00 22,0 19,0 15 8 ENE - 10 -
12.10.2018 05:00:00 21,8 16,3 2 1 - 1018,8 10 0,0
12.10.2018 04:00:00 22,0 18,0 4 2 - - 10 -
12.10.2018 03:00:00 22,0 16,0 4 2 - - 10 -

tt = temperature
td = dewpoint
ff = wind speed
dd = wind direction
ppp = reduced air pressure
vv = visibility
rr = precipitation

Next stations